Météo par heure à Alibaevskoe

Ce jour, 14 Mai, Vendredi

Heure Température Précipitation Vent Pression Humidité
00:00 +17°C° 0 mm 2 m/s 735 mmHg 52%
01:00 +16°C° 0 mm 2 m/s 735 mmHg 55%
02:00 +16°C° 0 mm 2 m/s 735 mmHg 55%
03:00 +16°C° 0 mm 2 m/s 735 mmHg 55%
04:00 +15°C° 0 mm 1 m/s 735 mmHg 56%
05:00 +18°C° 0 mm 1 m/s 736 mmHg 52%
06:00 +20°C° 0 mm 1 m/s 736 mmHg 48%
07:00 +21°C° 0 mm 1 m/s 736 mmHg 44%
08:00 +23°C° 0 mm 1 m/s 736 mmHg 37%
09:00 +25°C° 0 mm 1 m/s 736 mmHg 31%
10:00 +27°C° 0 mm 2 m/s 736 mmHg 25%
11:00 +27°C° 0 mm 2 m/s 736 mmHg 23%
12:00 +28°C° 0 mm 2 m/s 736 mmHg 22%
13:00 +29°C° 0 mm 3 m/s 736 mmHg 21%
14:00 +29°C° 0 mm 3 m/s 736 mmHg 21%
15:00 +29°C° 0 mm 3 m/s 736 mmHg 21%
16:00 +29°C° 0 mm 3 m/s 735 mmHg 21%
17:00 +27°C° 0 mm 3 m/s 735 mmHg 27%
18:00 +26°C° 0 mm 3 m/s 735 mmHg 33%
19:00 +24°C° 0 mm 3 m/s 735 mmHg 40%
20:00 +22°C° 0 mm 3 m/s 735 mmHg 42%
21:00 +20°C° 0 mm 3 m/s 735 mmHg 44%
22:00 +19°C° 0 mm 2 m/s 735 mmHg 47%
23:00 +18°C° 0 mm 2 m/s 735 mmHg 47%

Demain, 15 Mai, Samedi

Heure Température Précipitation Vent Pression Humidité
00:00 +18°C° 0 mm 2 m/s 734 mmHg 48%
01:00 +17°C° 0 mm 2 m/s 734 mmHg 48%
02:00 +17°C° 0 mm 2 m/s 734 mmHg 48%
03:00 +16°C° 0 mm 2 m/s 734 mmHg 48%
04:00 +16°C° 0 mm 2 m/s 735 mmHg 48%
05:00 +18°C° 0 mm 1 m/s 735 mmHg 46%
06:00 +20°C° 0 mm 1 m/s 735 mmHg 43%
07:00 +22°C° 0 mm 1 m/s 735 mmHg 40%
08:00 +23°C° 0 mm 1 m/s 735 mmHg 36%
09:00 +25°C° 0 mm 1 m/s 735 mmHg 32%
10:00 +27°C° 0 mm 2 m/s 735 mmHg 27%
11:00 +28°C° 0 mm 2 m/s 735 mmHg 26%
12:00 +29°C° 0 mm 2 m/s 735 mmHg 24%
13:00 +30°C° 0 mm 2 m/s 735 mmHg 22%
14:00 +30°C° 0 mm 2 m/s 734 mmHg 22%
15:00 +30°C° 0 mm 2 m/s 734 mmHg 22%
16:00 +30°C° 0 mm 2 m/s 734 mmHg 23%
17:00 +29°C° 0 mm 2 m/s 734 mmHg 29%
18:00 +27°C° 0 mm 3 m/s 734 mmHg 36%
19:00 +25°C° 0 mm 3 m/s 733 mmHg 42%
20:00 +24°C° 0 mm 3 m/s 733 mmHg 45%
21:00 +22°C° 0 mm 3 m/s 733 mmHg 48%
22:00 +20°C° 0 mm 3 m/s 733 mmHg 50%
23:00 +20°C° 0 mm 3 m/s 733 mmHg 51%

Après-demain, 16 Mai, Dimanche

Heure Température Précipitation Vent Pression Humidité
00:00 +19°C° 0 mm 2 m/s 733 mmHg 52%
01:00 +19°C° 0 mm 2 m/s 733 mmHg 53%
02:00 +19°C° 0 mm 2 m/s 733 mmHg 53%
03:00 +18°C° 0 mm 2 m/s 733 mmHg 54%
04:00 +18°C° 0 mm 2 m/s 733 mmHg 55%
05:00 +20°C° 0 mm 1 m/s 733 mmHg 52%
06:00 +22°C° 0 mm 1 m/s 734 mmHg 49%
07:00 +23°C° 0 mm 1 m/s 734 mmHg 46%
08:00 +25°C° 0 mm 1 m/s 734 mmHg 42%
09:00 +26°C° 0 mm 1 m/s 734 mmHg 38%
10:00 +28°C° 0 mm 1 m/s 734 mmHg 33%
11:00 +29°C° 0 mm 1 m/s 734 mmHg 30%
12:00 +30°C° 0 mm 1 m/s 733 mmHg 27%
13:00 +31°C° 0 mm 2 m/s 733 mmHg 23%
14:00 +31°C° 0 mm 2 m/s 733 mmHg 23%
15:00 +31°C° 0 mm 2 m/s 733 mmHg 22%
16:00 +31°C° 0 mm 2 m/s 733 mmHg 21%
17:00 +29°C° 0 mm 3 m/s 733 mmHg 28%
18:00 +28°C° 0 mm 3 m/s 732 mmHg 34%
19:00 +26°C° 0 mm 3 m/s 732 mmHg 41%
20:00 +24°C° 0 mm 3 m/s 732 mmHg 45%
21:00 +23°C° 0 mm 2 m/s 732 mmHg 49%
22:00 +20°C° 0 mm 2 m/s 732 mmHg 53%
23:00 +20°C° 0 mm 2 m/s 732 mmHg 54%

17 Mai, Lundi

Heure Température Précipitation Vent Pression Humidité
00:00 +21°C° 0 mm 1 m/s 732 mmHg 54%
01:00 +20°C° 0 mm 1 m/s 732 mmHg 54%
02:00 +20°C° 0 mm 1 m/s 732 mmHg 54%
03:00 +19°C° 0 mm 2 m/s 732 mmHg 55%
04:00 +18°C° 0 mm 2 m/s 732 mmHg 55%
05:00 +21°C° 0 mm 1 m/s 732 mmHg 52%
06:00 +22°C° 0 mm 1 m/s 732 mmHg 48%
07:00 +24°C° 0 mm 1 m/s 732 mmHg 45%
08:00 +26°C° 0 mm 1 m/s 733 mmHg 39%
09:00 +27°C° 0 mm 1 m/s 733 mmHg 34%
10:00 +29°C° 0 mm 1 m/s 733 mmHg 29%
11:00 +30°C° 0 mm 2 m/s 732 mmHg 27%
12:00 +30°C° 0 mm 2 m/s 732 mmHg 26%
13:00 +31°C° 0 mm 2 m/s 732 mmHg 25%
14:00 +30°C° 0 mm 3 m/s 732 mmHg 28%
15:00 +29°C° 0 mm 4 m/s 731 mmHg 31%
16:00 +29°C° 0 mm 5 m/s 731 mmHg 34%
17:00 +27°C° 0.1 mm 5 m/s 731 mmHg 40%
18:00 +23°C° 0.1 mm 4 m/s 731 mmHg 47%
19:00 +21°C° 0.1 mm 3 m/s 731 mmHg 54%
20:00 +21°C° 0 mm 3 m/s 731 mmHg 55%
21:00 +20°C° 0 mm 2 m/s 731 mmHg 57%
22:00 +20°C° 0 mm 1 m/s 731 mmHg 58%
23:00 +19°C° 0.1 mm 1 m/s 731 mmHg 60%

18 Mai, Mardi

Heure Température Précipitation Vent Pression Humidité
00:00 +19°C° 0.1 mm 1 m/s 730 mmHg 61%
01:00 +18°C° 0.1 mm 1 m/s 730 mmHg 63%
02:00 +18°C° 0 mm 1 m/s 730 mmHg 65%
03:00 +17°C° 0 mm 2 m/s 730 mmHg 67%
04:00 +17°C° 0 mm 2 m/s 730 mmHg 69%
05:00 +18°C° 0 mm 2 m/s 730 mmHg 64%
06:00 +20°C° 0 mm 2 m/s 730 mmHg 60%
07:00 +21°C° 0 mm 2 m/s 730 mmHg 56%
08:00 +24°C° 0 mm 2 m/s 730 mmHg 49%
09:00 +26°C° 0 mm 2 m/s 730 mmHg 43%
10:00 +28°C° 0 mm 3 m/s 730 mmHg 36%
11:00 +29°C° 0 mm 2 m/s 730 mmHg 34%
12:00 +30°C° 0 mm 2 m/s 730 mmHg 31%
13:00 +30°C° 0 mm 2 m/s 730 mmHg 28%
14:00 +30°C° 0 mm 2 m/s 729 mmHg 28%
15:00 +30°C° 0 mm 2 m/s 729 mmHg 28%
16:00 +31°C° 0 mm 2 m/s 729 mmHg 27%
17:00 +29°C° 0 mm 3 m/s 729 mmHg 35%
18:00 +27°C° 0 mm 3 m/s 729 mmHg 43%
19:00 +25°C° 0 mm 3 m/s 729 mmHg 50%
20:00 +24°C° 0 mm 3 m/s 729 mmHg 52%
21:00 +22°C° 0 mm 3 m/s 729 mmHg 54%
22:00 +20°C° 0 mm 3 m/s 729 mmHg 56%
23:00 +20°C° 0 mm 3 m/s 729 mmHg 58%

19 Mai, Mercredi

Heure Température Précipitation Vent Pression Humidité
00:00 +19°C° 0 mm 3 m/s 730 mmHg 60%
01:00 +18°C° 0 mm 2 m/s 730 mmHg 62%
02:00 +18°C° 0 mm 2 m/s 730 mmHg 64%
03:00 +17°C° 0 mm 2 m/s 730 mmHg 66%
04:00 +17°C° 0 mm 2 m/s 730 mmHg 67%
05:00 +18°C° 0 mm 3 m/s 730 mmHg 64%
06:00 +19°C° 0 mm 4 m/s 731 mmHg 60%
07:00 +21°C° 0 mm 4 m/s 731 mmHg 57%
08:00 +22°C° 0 mm 5 m/s 731 mmHg 53%
09:00 +23°C° 0 mm 5 m/s 732 mmHg 49%
10:00 +24°C° 0 mm 6 m/s 732 mmHg 44%
11:00 +26°C° 0 mm 5 m/s 732 mmHg 42%
12:00 +27°C° 0 mm 5 m/s 732 mmHg 39%
13:00 +28°C° 0 mm 5 m/s 732 mmHg 36%
14:00 +28°C° 0 mm 5 m/s 732 mmHg 35%
15:00 +28°C° 0 mm 4 m/s 732 mmHg 33%
16:00 +28°C° 0 mm 4 m/s 732 mmHg 32%
17:00 +27°C° 0 mm 4 m/s 732 mmHg 35%
18:00 +25°C° 0 mm 4 m/s 732 mmHg 39%
19:00 +23°C° 0 mm 4 m/s 732 mmHg 42%
20:00 +22°C° 0 mm 3 m/s 732 mmHg 45%
21:00 +20°C° 0 mm 3 m/s 732 mmHg 47%
22:00 +18°C° 0 mm 3 m/s 733 mmHg 49%
23:00 +18°C° 0 mm 2 m/s 733 mmHg 51%
Voir plus

Nous avons besoin de votre consentement

Meteoprog et ses fournisseurs de services peuvent stocker et accéder à des données personnelles telles que des cookies, des identifiants d'appareils ou d'autres technologies similaires sur votre appareil et traiter ces données pour personnaliser le contenu et les publicités, ainsi que pour fournir des fonctionnalités de médias sociaux et analyser le trafic.

  • Stocker et/ou accéder à des informations sur votre appareil

    Des cookies, des identifiants d'appareils ou d'autres informations peuvent être stockés ou accessibles sur votre appareil aux fins indiquées ci-dessus.

  • Annonces et contenus personnalisés, mesure des annonces et des contenus, connaissance de l'audience et développement de produits

    Les annonces et le contenu peuvent être personnalisés en fonction d'un profil. D'autres données peuvent être ajoutées pour mieux personnaliser les annonces et le contenu. Les performances des publicités et du contenu peuvent être mesurées. Il est possible d'obtenir des informations sur le public qui a vu les publicités et le contenu. Ces données peuvent être utilisées pour développer ou améliorer l'expérience de l'utilisateur, les systèmes et les logiciels.

En cliquant sur "J'accepte", vous autorisez l'utilisation de cookies, des identifiants d'appareils, des balises web ou d'autres technologies similaires. Vos paramètres peuvent être modifiés dans le navigateur de votre appareil.

Dans certains cas, des intérêts légitimes peuvent être invoqués plutôt qu'un consentement. Vous pouvez en savoir plus à ce sujet dans notre Politique de confidentialité et de cookies.